Chatham, MA

7:31 PM EDT on May 22, 2017 (GMT -0400)
Chatham Municipal

Weather History for KCQX - March, 2014

Change the Weather History Date:

Saturday, March 8, 2014

  Actual Average Record
Temperature  
Mean Temperature 40 °F -  
Max Temperature 48 °F 40 °F 61 °F (1987)
Min Temperature 33 °F 27 °F 8 °F (1986)
Degree Days  
Heating Degree Days 24    
Moisture  
Dew Point 32 °F    
Average Humidity 76    
Maximum Humidity 96    
Minimum Humidity 36    
Precipitation  
Precipitation 0.00 in - - ()
Sea Level Pressure  
Sea Level Pressure 29.79 in    
Wind  
Wind Speed 7 mph (North)    
Max Wind Speed 10 mph    
Max Gust Speed 20 mph    
Visibility 10 miles    
Events      
Averages and records for this station are not official NWS values.
T = Trace of Precipitation, MM = Missing Value Source: NWS Daily Summary

Daily Weather History Graph

Daily Weather History Graph

Search for Another Location

Airport or City:

Trip Planner

Search our weather history database for the weather conditions in past years. The results will help you decide how hot, cold, wet, or windy it might be!

Date:

Astronomy

Mar. 08, 2014 Rise Set
Actual Time 6:03 AM EST 5:38 PM EST
Civil Twilight 5:35 AM EST 6:06 PM EST
Nautical Twilight 5:03 AM EST 6:38 PM EST
Astronomical Twilight 4:31 AM EST 7:10 PM EST
Moon 10:36 AM EST (3/8) 12:38 AM EST (3/8)
Length of Visible Light 12h 30m
Length of Day
11h 35m
First Quarter, 51% of the Moon is Illuminated
Mar 8
First Quarter
Mar 16
Full
Mar 23
Last Quarter
Mar 30
New
Apr 7
First Quarter

Hourly Weather History & Observations

Time (EST) Temp. Windchill Dew Point Humidity Pressure Visibility Wind Dir Wind Speed Gust Speed Precip Events Conditions
12:52 AM 37.9 °F 32.7 °F 36.0 °F 93% 29.89 in 10.0 mi NNE 6.9 mph - N/A   Clear
1:07 AM 37.9 °F 33.5 °F 36.0 °F 93% 29.87 in 10.0 mi Variable 5.8 mph - N/A   Partly Cloudy
1:52 AM 37.9 °F 32.1 °F 36.0 °F 93% 29.85 in 10.0 mi NNE 8.1 mph - N/A   Mostly Cloudy
2:52 AM 37.9 °F 31.5 °F 36.0 °F 93% 29.81 in 10.0 mi North 9.2 mph - N/A   Overcast
3:52 AM 37.9 °F 32.1 °F 36.0 °F 93% 29.80 in 10.0 mi North 8.1 mph - N/A   Overcast
4:17 AM 37.9 °F 32.7 °F 36.0 °F 93% 29.79 in 10.0 mi NNE 6.9 mph - N/A   Overcast
4:27 AM 37.9 °F 32.1 °F 36.0 °F 93% 29.78 in 10.0 mi NNE 8.1 mph - N/A   Overcast
4:52 AM 37.9 °F 33.5 °F 36.0 °F 93% 29.80 in 10.0 mi North 5.8 mph - N/A   Overcast
5:35 AM 37.0 °F 31.6 °F 36.0 °F 96% 29.78 in 10.0 mi Variable 6.9 mph - N/A   Overcast
5:52 AM 37.0 °F 32.4 °F 36.0 °F 96% 29.79 in 10.0 mi Variable 5.8 mph - N/A   Overcast
6:52 AM 37.0 °F 33.3 °F 35.1 °F 93% 29.80 in 10.0 mi North 4.6 mph - N/A   Scattered Clouds
7:52 AM 42.1 °F 37.1 °F 36.0 °F 79% 29.79 in 10.0 mi North 8.1 mph - N/A   Clear
8:52 AM 43.0 °F 37.7 °F 36.0 °F 76% 29.78 in 10.0 mi NNW 9.2 mph - N/A   Clear
9:52 AM 46.0 °F 42.5 °F 36.0 °F 68% 29.77 in 10.0 mi North 6.9 mph - N/A   Clear
10:52 AM 45.0 °F 41.8 °F 34.0 °F 65% 29.76 in 10.0 mi Variable 5.8 mph - N/A   Clear
11:52 AM 44.1 °F 39.0 °F 33.1 °F 65% 29.75 in 10.0 mi NW 9.2 mph 19.6 mph N/A   Clear
12:52 PM 46.9 °F - 27.0 °F 46% 29.71 in 10.0 mi Variable 5.8 mph - N/A   Clear
1:52 PM 48.0 °F - 25.0 °F 41% 29.70 in 10.0 mi Variable 5.8 mph - N/A   Clear
2:52 PM 48.0 °F - 21.9 °F 36% 29.71 in 10.0 mi NNW 10.4 mph - N/A   Clear
3:52 PM 48.0 °F - 23.0 °F 37% 29.72 in 10.0 mi North 6.9 mph - N/A   Scattered Clouds
4:52 PM 41.0 °F 38.0 °F 32.0 °F 70% 29.73 in 10.0 mi SSW 4.6 mph - N/A   Mostly Cloudy
5:52 PM 37.9 °F - 28.9 °F 70% 29.75 in 10.0 mi Calm Calm - N/A   Partly Cloudy
6:52 PM 36.0 °F - 28.9 °F 76% 29.78 in 10.0 mi Calm Calm - N/A   Clear
7:52 PM 33.1 °F - 28.0 °F 82% 29.79 in 10.0 mi Calm Calm - N/A   Clear
8:52 PM 34.0 °F 29.8 °F 28.0 °F 79% 29.82 in 10.0 mi NNW 4.6 mph - N/A   Mostly Cloudy
9:52 PM 37.0 °F 33.3 °F 26.1 °F 65% 29.83 in 10.0 mi Variable 4.6 mph - N/A   Scattered Clouds
10:52 PM 37.9 °F 32.7 °F 30.0 °F 73% 29.84 in 10.0 mi North 6.9 mph - N/A   Partly Cloudy
11:52 PM 36.0 °F 32.1 °F 30.0 °F 79% 29.85 in 10.0 mi Variable 4.6 mph - N/A   Scattered Clouds